Location: Bord�res
(43.2000°N, 0.2167°W)
Time: 13:09:11
(UTC+00:00)

SL-4 R/B - Pass Details

Date: 03 March 2021
Orbit: 428 x 663 km, 51.6° (Epoch: 13 April)

Event Time Altitude Azimuth Distance (km) Brightness Sun altitude
Rises 19:50:09 0° 304° (NW) 2,459 6.5 -22.1°
Reaches altitude 10° 19:52:27 10° 313° (NW) 1,560 5.1 -22.5°
Enters shadow 19:54:49 30° 349° (NNW) 810 3.0 -22.9°
